Location: St. Louis
(38.6270°N, 90.1994°W)
Time: 16:34:02
(UTC-06:00)

Courier 1B - Pass Details

Date: 01 December 2021
Orbit: 962 x 1209 km, 28.3° (Epoch: 26 January)

Event Time Altitude Azimuth Distance (km) Brightness Sun altitude
Rises 19:17:39 0° 252° (WSW) 3,913 11.8 -30.2°
Reaches altitude 10° 19:20:43 10° 244° (WSW) 2,914 10.8 -30.8°
Enters shadow 19:27:01 35° 181° (S) 1,599 8.6 -32.1°
